Location: Lecco
(45.8566°N, 9.3977°E)
Time: 10:08:01
(UTC+02:00)

S-56A Canister/Altair - Pass Details

Date: 26 July 2019
Orbit: 633 x 2499 km, 38.9° (Epoch: 18 August)

Event Time Altitude Azimuth Distance (km) Brightness Sun altitude
Rises 11:12:39 0° 277° (W) 5,527 11.6 51.5°
Reaches altitude 10° 11:16:06 10° 273° (W) 4,715 11.3 52.0°
Maximum altitude 11:29:16 52° 203° (SSW) 2,919 11.3 53.9°
Drops below altitude 10° 11:43:21 10° 134° (SE) 5,012 12.4 55.8°
Sets 11:47:10 0° 129° (SE) 5,886 12.6 56.3°
